Meadville, PA

3:37 AM EDT on March 30, 2017 (GMT -0400)
Port Meadville

Weather History for KGKJ - September, 2013

Change the Weather History Date:

Saturday, September 21, 2013

  Actual Average Record
Temperature  
Mean Temperature 61 °F -  
Max Temperature 71 °F 71 °F 88 °F (1965)
Min Temperature 53 °F 49 °F 35 °F (1973)
Degree Days  
Heating Degree Days 4    
Growing Degree Days 11 (Base 50)    
Moisture  
Dew Point 60 °F    
Average Humidity 92    
Maximum Humidity 100    
Minimum Humidity 77    
Precipitation  
Precipitation 1.67 in - - ()
Sea Level Pressure  
Sea Level Pressure 29.73 in    
Wind  
Wind Speed 4 mph (WSW)    
Max Wind Speed 15 mph    
Max Gust Speed 33 mph    
Visibility 5 miles    
Events Rain    
Averages and records for this station are not official NWS values.
T = Trace of Precipitation, MM = Missing Value Source: NWS Daily Summary

Daily Weather History Graph

Daily Weather History Graph

Search for Another Location

Airport or City:

Trip Planner

Search our weather history database for the weather conditions in past years. The results will help you decide how hot, cold, wet, or windy it might be!

Date:

Astronomy

Sep. 21, 2013 Rise Set
Actual Time 7:07 AM EDT 7:19 PM EDT
Civil Twilight 6:39 AM EDT 7:47 PM EDT
Nautical Twilight 6:07 AM EDT 8:19 PM EDT
Astronomical Twilight 5:33 AM EDT 8:52 PM EDT
Moon 8:26 PM EDT (9/21) 9:26 AM EDT (9/21)
Length of Visible Light 13h 07m
Length of Day
12h 11m
Waning Gibbous, 94% of the Moon is Illuminated
Sep 21
Waning Gibbous
Sep 26
Last Quarter
Oct 4
New
Oct 11
First Quarter
Oct 18
Full

Hourly Weather History & Observations

Time (EDT) Temp. Dew Point Humidity Pressure Visibility Wind Dir Wind Speed Gust Speed Precip Events Conditions
12:53 AM 69.1 °F 66.0 °F 90% 29.79 in 7.0 mi South 5.8 mph - N/A   Overcast
1:02 AM 69.8 °F 66.2 °F 88% 29.81 in 7.0 mi SSW 5.8 mph - N/A   Overcast
1:20 AM 69.8 °F 66.2 °F 88% 29.81 in 8.0 mi WSW 3.5 mph - N/A   Overcast
1:53 AM 69.1 °F 66.0 °F 90% 29.78 in 8.0 mi SW 3.5 mph - N/A   Overcast
2:05 AM 69.8 °F 66.2 °F 88% 29.80 in 2.5 mi SW 6.9 mph - 0.08 in Rain Light Rain
2:08 AM 69.8 °F 66.2 °F 88% 29.80 in 4.0 mi SSW 5.8 mph - 0.08 in Rain Light Rain
2:53 AM 68.0 °F 66.0 °F 93% 29.76 in 5.0 mi SSW 5.8 mph - 0.08 in   Overcast
3:35 AM 68.0 °F 66.2 °F 94% 29.77 in 5.0 mi South 3.5 mph - N/A   Overcast
3:45 AM 68.0 °F 66.2 °F 94% 29.76 in 4.0 mi Calm Calm - N/A   Overcast
3:53 AM 68.0 °F 66.0 °F 93% 29.73 in 4.0 mi Variable 3.5 mph - N/A   Overcast
4:32 AM 68.0 °F 66.2 °F 94% 29.75 in 5.0 mi SSW 3.5 mph - N/A   Overcast
4:53 AM 68.0 °F 66.0 °F 93% 29.72 in 3.0 mi South 3.5 mph - N/A   Overcast
5:03 AM 68.0 °F 66.2 °F 94% 29.74 in 3.0 mi Calm Calm - N/A   Overcast
5:10 AM 68.0 °F 66.2 °F 94% 29.73 in 4.0 mi Calm Calm - N/A   Overcast
5:15 AM 68.0 °F 66.2 °F 94% 29.73 in 1.8 mi Calm Calm - 0.06 in Rain Heavy Rain
5:34 AM 66.2 °F 66.2 °F 100% 29.73 in 1.0 mi Variable 3.5 mph - 0.21 in Rain Heavy Rain
5:45 AM 66.2 °F 66.2 °F 100% 29.72 in 2.5 mi Variable 3.5 mph - 0.23 in Rain Rain
5:51 AM 66.2 °F 66.2 °F 100% 29.72 in 3.0 mi South 4.6 mph - 0.23 in Rain Light Rain
5:52 AM 66.9 °F 64.9 °F 93% 29.69 in 3.0 mi Variable 5.8 mph - 0.23 in Rain Light Rain
6:14 AM 66.2 °F 64.4 °F 94% 29.71 in 6.0 mi Variable 4.6 mph - 0.00 in   Overcast
6:24 AM 66.2 °F 64.4 °F 94% 29.71 in 7.0 mi Variable 3.5 mph - 0.00 in   Overcast
6:49 AM 66.2 °F 66.2 °F 100% 29.70 in 5.0 mi Variable 4.6 mph - 0.01 in   Overcast
6:53 AM 66.9 °F 66.0 °F 97% 29.67 in 4.0 mi Variable 3.5 mph - 0.01 in   Overcast
7:53 AM 66.0 °F 63.0 °F 90% 29.71 in 3.0 mi West 15.0 mph 33.4 mph 0.07 in Rain Rain
8:01 AM 60.8 °F 59.0 °F 94% 29.73 in 2.0 mi WNW 12.7 mph 24.2 mph 0.08 in Rain Heavy Rain
8:16 AM 60.8 °F 57.2 °F 88% 29.72 in 3.0 mi NW 9.2 mph 16.1 mph 0.16 in Rain Rain
8:19 AM 60.8 °F 57.2 °F 88% 29.73 in 4.0 mi WNW 5.8 mph - 0.17 in Rain Light Rain
8:28 AM 60.8 °F 57.2 °F 88% 29.73 in 1.8 mi WNW 3.5 mph - 0.21 in Rain Heavy Rain
8:36 AM 60.8 °F 57.2 °F 88% 29.72 in 3.0 mi North 6.9 mph - 0.23 in Rain Light Rain
8:53 AM 60.1 °F 57.9 °F 93% 29.72 in 2.0 mi Calm Calm - 0.27 in Rain Heavy Rain
9:14 AM 60.8 °F 57.2 °F 88% 29.74 in 2.0 mi WNW 4.6 mph - 0.08 in Rain Rain
9:27 AM 60.8 °F 57.2 °F 88% 29.74 in 3.0 mi Calm Calm - 0.11 in Rain Rain
9:40 AM 60.8 °F 57.2 °F 88% 29.75 in 1.8 mi Calm Calm - 0.15 in Rain Heavy Rain
9:51 AM 60.8 °F 59.0 °F 94% 29.75 in 2.0 mi Calm Calm - 0.20 in Rain Heavy Rain
9:52 AM 60.1 °F 59.0 °F 96% 29.73 in 2.0 mi Calm Calm - 0.20 in Rain Heavy Rain
10:05 AM 60.8 °F 57.2 °F 88% 29.74 in 4.0 mi Calm Calm - 0.02 in Rain Rain
10:19 AM 60.8 °F 59.0 °F 94% 29.74 in 2.5 mi Calm Calm - 0.05 in Rain Light Rain
10:29 AM 60.8 °F 59.0 °F 94% 29.74 in 1.8 mi Calm Calm - 0.09 in Rain Heavy Rain
10:36 AM 60.8 °F 59.0 °F 94% 29.74 in 2.5 mi Calm Calm - 0.11 in Rain Rain
10:43 AM 60.8 °F 59.0 °F 94% 29.74 in 4.0 mi Calm Calm - 0.12 in Rain Rain
10:53 AM 60.1 °F 59.0 °F 96% 29.73 in 4.0 mi Calm Calm - 0.14 in Rain Rain
11:01 AM 60.8 °F 59.0 °F 94% 29.74 in 4.0 mi Variable 3.5 mph - 0.01 in Rain Rain
11:14 AM 60.8 °F 59.0 °F 94% 29.74 in 6.0 mi East 3.5 mph - 0.02 in Rain Rain
11:42 AM 60.8 °F 59.0 °F 94% 29.73 in 6.0 mi East 5.8 mph - 0.06 in Rain Rain
11:53 AM 61.0 °F 59.0 °F 93% 29.72 in 6.0 mi Calm Calm - 0.07 in Rain Rain
12:00 PM 60.8 °F 59.0 °F 94% 29.73 in 6.0 mi Calm Calm - 0.01 in Rain Light Rain
12:09 PM 60.8 °F 59.0 °F 94% 29.73 in 6.0 mi Calm Calm - 0.02 in Rain Rain
12:32 PM 60.8 °F 59.0 °F 94% 29.72 in 6.0 mi Variable 3.5 mph - 0.05 in Rain Light Rain
12:39 PM 60.8 °F 57.2 °F 88% 29.72 in 6.0 mi ESE 3.5 mph - 0.06 in Rain Light Rain
12:48 PM 60.8 °F 57.2 °F 88% 29.71 in 5.0 mi East 5.8 mph - 0.07 in Rain Rain
12:53 PM 60.1 °F 57.9 °F 93% 29.70 in 4.0 mi Variable 4.6 mph - 0.08 in Rain Rain
1:18 PM 60.8 °F 57.2 °F 88% 29.71 in 4.0 mi Variable 4.6 mph - 0.05 in Rain Rain
1:34 PM 60.8 °F 59.0 °F 94% 29.71 in 3.0 mi Calm Calm - 0.07 in Rain Rain
1:49 PM 60.8 °F 57.2 °F 88% 29.71 in 2.5 mi Variable 3.5 mph - 0.12 in Rain Rain
1:53 PM 60.1 °F 59.0 °F 96% 29.69 in 3.0 mi Variable 3.5 mph - 0.13 in Rain Rain
2:01 PM 60.8 °F 59.0 °F 94% 29.70 in 2.5 mi Variable 3.5 mph - 0.02 in Rain Rain
2:11 PM 60.8 °F 57.2 °F 88% 29.69 in 3.0 mi Variable 5.8 mph - 0.04 in Rain Rain
2:20 PM 60.8 °F 57.2 °F 88% 29.68 in 3.0 mi Calm Calm - 0.06 in Rain Rain
2:29 PM 60.8 °F 57.2 °F 88% 29.68 in 4.0 mi Variable 4.6 mph - 0.08 in Rain Rain
2:53 PM 60.1 °F 57.9 °F 93% 29.67 in 5.0 mi Variable 3.5 mph - 0.12 in Rain Rain
3:13 PM 60.8 °F 57.2 °F 88% 29.69 in 6.0 mi Calm Calm - 0.01 in Rain Light Rain
3:18 PM 60.8 °F 57.2 °F 88% 29.69 in 1.8 mi SW 3.5 mph - 0.03 in Rain Heavy Rain
3:47 PM 59.0 °F 57.2 °F 94% 29.71 in 3.0 mi WNW 6.9 mph - 0.14 in Rain Light Rain
3:53 PM 59.0 °F 57.0 °F 93% 29.69 in 4.0 mi Variable 4.6 mph - 0.14 in Rain Light Rain
4:00 PM 59.0 °F 57.2 °F 94% 29.71 in 5.0 mi West 4.6 mph - 0.00 in Rain Light Rain
4:08 PM 59.0 °F 57.2 °F 94% 29.71 in 7.0 mi West 5.8 mph - 0.00 in Rain Light Rain
4:39 PM 60.8 °F 57.2 °F 88% 29.71 in 7.0 mi WSW 4.6 mph - 0.00 in Rain Light Rain
4:53 PM 60.1 °F 57.9 °F 93% 29.70 in 6.0 mi Variable 4.6 mph - 0.00 in   Overcast
5:22 PM 62.6 °F 59.0 °F 88% 29.71 in 9.0 mi WSW 4.6 mph - N/A   Overcast
5:41 PM 62.6 °F 59.0 °F 88% 29.71 in 10.0 mi WSW 4.6 mph - N/A   Mostly Cloudy
5:53 PM 63.0 °F 59.0 °F 87% 29.70 in 10.0 mi WSW 10.4 mph - N/A   Mostly Cloudy
6:03 PM 62.6 °F 55.4 °F 77% 29.72 in 10.0 mi West 8.1 mph - N/A   Mostly Cloudy
6:50 PM 60.8 °F 55.4 °F 82% 29.74 in 1.5 mi West 15.0 mph 20.7 mph 0.09 in Rain Rain
6:53 PM 59.0 °F 55.9 °F 90% 29.73 in 1.2 mi WNW 8.1 mph 20.7 mph 0.10 in Rain Heavy Rain
7:07 PM 57.2 °F 55.4 °F 94% 29.75 in 2.5 mi NW 9.2 mph - 0.03 in Rain Light Rain
7:10 PM 57.2 °F 55.4 °F 94% 29.75 in 3.0 mi NW 8.1 mph - 0.03 in Rain Light Rain
7:39 PM 57.2 °F 55.4 °F 94% 29.76 in 10.0 mi NW 6.9 mph - 0.03 in   Overcast
7:53 PM 57.9 °F 55.0 °F 90% 29.75 in 10.0 mi NW 8.1 mph - 0.03 in   Overcast
8:53 PM 55.0 °F 53.1 °F 93% 29.78 in 10.0 mi Calm Calm - N/A   Scattered Clouds
9:53 PM 55.0 °F 53.1 °F 93% 29.79 in 10.0 mi Calm Calm - N/A   Mostly Cloudy
10:53 PM 53.1 °F 52.0 °F 96% 29.80 in 10.0 mi Calm Calm - N/A   Clear
11:53 PM 54.0 °F 51.1 °F 90% 29.80 in 10.0 mi Calm Calm - N/A   Overcast